This is the latest recevied weather packets stored in our database for station/object WA2FTC. If no packets are shown the sender has not sent any weather packets the latest 10 day(s).
| Time | Temp. | Humidity | Pressure | Rain* | Wind** | Luminosity | Snow |
|---|---|---|---|---|---|---|---|
| 1777660223 | 44.44° C | 42% | 1009.3 hPa | 0 mm | - | - | - |
| 1777659337 | 43.89° C | 41% | 1009.6 hPa | 0 mm | - | - | - |
| 1777658416 | 43.89° C | 41% | 1009.6 hPa | 0 mm | - | - | - |
| 1777657514 | 43.33° C | 42% | 1009.7 hPa | 0 mm | - | - | - |
| 1777656611 | 40.56° C | 47% | 1009.8 hPa | 0 mm | - | - | - |
| 1777655709 | 40.56° C | 47% | 1010 hPa | 0 mm | - | - | - |
| 1777654835 | 38.89° C | 51% | 1010 hPa | 0 mm | - | - | - |
| 1777653943 | 37.78° C | 52% | 1010.1 hPa | 0 mm | - | - | - |
| 1777653003 | 38.33° C | 55% | 1010.4 hPa | 0 mm | - | - | - |
| 1777652160 | 37.22° C | 58% | 1010.6 hPa | 0 mm | - | - | - |
| 1777651296 | 36.11° C | 61% | 1010.6 hPa | 0 mm | - | - | - |
| 1777650364 | 35.56° C | 65% | 1010.7 hPa | 0 mm | - | - | - |
| 1777649457 | 34.44° C | 64% | 1010.7 hPa | 0 mm | - | - | - |
| 1777648553 | 35° C | 69% | 1010.7 hPa | 0 mm | - | - | - |
| 1777647651 | 34.44° C | 69% | 1011 hPa | 0 mm | - | - | - |
| 1777646745 | 33.33° C | 71% | 1010.8 hPa | 0 mm | - | - | - |
| 1777645864 | 32.22° C | 75% | 1010.7 hPa | 0 mm | - | - | - |
| 1777644940 | 31.67° C | 75% | 1010.9 hPa | 0 mm | - | - | - |
| 1777644049 | 30.56° C | 81% | 1010.8 hPa | 0 mm | - | - | - |
| 1777643134 | 30° C | 84% | 1011 hPa | 0 mm | - | - | - |
| 1777642234 | 29.44° C | 86% | 1011 hPa | 0 mm | - | - | - |
| 1777641325 | - | - | 1010.7 hPa | 0 mm | - | - | - |
| 1777640417 | - | - | 1010.9 hPa | 0 mm | - | - | - |
| 1777639514 | - | - | 1010.8 hPa | 0 mm | - | - | - |
| 1777638609 | - | - | 1010.5 hPa | 0 mm | - | - | - |
* Rain latest hour (hover to see other rain measurements)
** Current wind speed in m/s (hover to see current wind gust speed)